Time,TemperatureF,DewpointF,PressureIn,WindDirection,WindDirectionDegrees,WindSpeedMPH,WindSpeedGustMPH,Humidity,HourlyPrecipIn,Conditions,Clouds,dailyrainin,SoftwareType,DateUTC
2013-12-12 00:01:00,41.2,27.0,30.19,ESE,112,3.1,4.5,57,0.00,,,0.00,WUHU21623XXSP,2013-12-12 08:01:00,
2013-12-12 00:06:00,41.0,26.9,30.19,ESE,112,0.0,3.1,57,0.00,,,0.00,WUHU21623XXSP,2013-12-12 08:06:00,
2013-12-12 00:11:00,40.8,27.1,30.18,SE,135,1.3,4.5,58,0.00,,,0.00,WUHU21623XXSP,2013-12-12 08:11:00,
2013-12-12 00:16:00,40.8,26.7,30.19,SE,135,2.7,4.5,57,0.00,,,0.00,WUHU21623XXSP,2013-12-12 08:16:00,
2013-12-12 00:21:00,40.8,26.7,30.19,SSE,157,1.1,6.3,57,0.00,,,0.00,WUHU21623XXSP,2013-12-12 08:21:00,
2013-12-12 00:26:00,40.6,27.0,30.19,ESE,112,1.6,6.3,58,0.00,,,0.00,WUHU21623XXSP,2013-12-12 08:26:00,
2013-12-12 00:31:00,40.6,26.5,30.19,ESE,112,1.6,3.4,57,0.00,,,0.00,WUHU21623XXSP,2013-12-12 08:31:00,
2013-12-12 00:36:00,40.8,26.2,30.19,ESE,112,2.5,3.4,56,0.00,,,0.00,WUHU21623XXSP,2013-12-12 08:36:00,
2013-12-12 00:41:00,41.0,26.4,30.19,ESE,112,3.8,4.5,56,0.00,,,0.00,WUHU21623XXSP,2013-12-12 08:41:00,
2013-12-12 00:46:00,40.8,26.7,30.19,ESE,112,2.5,4.5,57,0.00,,,0.00,WUHU21623XXSP,2013-12-12 08:46:00,
2013-12-12 00:51:00,40.6,26.5,30.19,ESE,112,0.0,4.7,57,0.00,,,0.00,WUHU21623XXSP,2013-12-12 08:51:00,
2013-12-12 00:56:00,40.6,26.5,30.19,ESE,112,0.9,4.7,57,0.00,,,0.00,WUHU21623XXSP,2013-12-12 08:56:00,
2013-12-12 01:01:00,40.6,26.5,30.19,ESE,112,2.7,4.3,57,0.00,,,0.00,WUHU21623XXSP,2013-12-12 09:01:00,
2013-12-12 01:06:00,40.6,26.5,30.19,SE,135,1.6,4.9,57,0.00,,,0.00,WUHU21623XXSP,2013-12-12 09:06:00,
2013-12-12 01:11:00,40.5,26.8,30.18,ESE,112,0.0,5.8,58,0.00,,,0.00,WUHU21623XXSP,2013-12-12 09:11:00,
2013-12-12 01:16:00,40.6,26.1,30.18,SE,135,2.9,5.8,56,0.00,,,0.00,WUHU21623XXSP,2013-12-12 09:16:00,
2013-12-12 01:21:00,40.8,26.2,30.18,SE,135,3.6,4.5,56,0.00,,,0.00,WUHU21623XXSP,2013-12-12 09:21:00,
2013-12-12 01:26:00,40.8,26.2,30.19,ESE,112,1.8,4.9,56,0.00,,,0.00,WUHU21623XXSP,2013-12-12 09:26:00,
2013-12-12 01:31:00,40.8,26.2,30.19,ESE,112,1.8,4.9,56,0.00,,,0.00,WUHU21623XXSP,2013-12-12 09:31:00,
2013-12-12 01:36:00,40.8,26.2,30.18,ESE,112,2.7,4.0,56,0.00,,,0.00,WUHU21623XXSP,2013-12-12 09:36:00,
2013-12-12 01:41:00,40.5,26.3,30.19,ESE,112,1.8,5.6,57,0.00,,,0.00,WUHU21623XXSP,2013-12-12 09:41:00,
2013-12-12 01:46:00,40.3,26.2,30.18,SE,135,1.6,5.6,57,0.00,,,0.00,WUHU21623XXSP,2013-12-12 09:46:00,
2013-12-12 01:51:00,40.3,26.6,30.19,ESE,112,2.2,5.4,58,0.00,,,0.00,WUHU21623XXSP,2013-12-12 09:51:00,
2013-12-12 01:56:00,40.1,26.4,30.19,ESE,112,1.6,5.4,58,0.00,,,0.00,WUHU21623XXSP,2013-12-12 09:56:00,
2013-12-12 02:01:00,39.9,26.3,30.18,ESE,112,2.2,5.4,58,0.00,,,0.00,WUHU21623XXSP,2013-12-12 10:01:00,
2013-12-12 02:06:00,39.9,26.3,30.19,ESE,112,4.3,6.7,58,0.00,,,0.00,WUHU21623XXSP,2013-12-12 10:06:00,
2013-12-12 02:11:00,39.9,26.3,30.19,ESE,112,4.7,6.7,58,0.00,,,0.00,WUHU21623XXSP,2013-12-12 10:11:00,
2013-12-12 02:16:00,39.9,26.3,30.19,ESE,112,3.8,6.5,58,0.00,,,0.00,WUHU21623XXSP,2013-12-12 10:16:00,
2013-12-12 02:21:00,39.9,26.3,30.19,ESE,112,4.9,6.5,58,0.00,,,0.00,WUHU21623XXSP,2013-12-12 10:21:00,
2013-12-12 02:26:00,39.9,26.3,30.19,ESE,112,6.0,7.2,58,0.00,,,0.00,WUHU21623XXSP,2013-12-12 10:26:00,
2013-12-12 02:31:00,40.1,26.4,30.18,SE,135,3.1,7.2,58,0.00,,,0.00,WUHU21623XXSP,2013-12-12 10:31:00,
2013-12-12 02:36:00,40.1,26.4,30.19,ESE,112,1.1,7.2,58,0.00,,,0.00,WUHU21623XXSP,2013-12-12 10:36:00,
2013-12-12 02:41:00,40.3,26.2,30.19,ESE,112,5.8,7.2,57,0.00,,,0.00,WUHU21623XXSP,2013-12-12 10:41:00,
2013-12-12 02:46:00,40.6,26.5,30.19,SSE,157,1.3,6.9,57,0.00,,,0.00,WUHU21623XXSP,2013-12-12 10:46:00,
2013-12-12 02:51:00,40.6,26.5,30.19,SE,135,5.4,6.7,57,0.00,,,0.00,WUHU21623XXSP,2013-12-12 10:51:00,
2013-12-12 02:56:00,40.5,26.3,30.18,SE,135,4.9,6.7,57,0.00,,,0.00,WUHU21623XXSP,2013-12-12 10:56:00,
2013-12-12 03:01:00,40.5,26.3,30.18,SE,135,4.3,6.9,57,0.00,,,0.00,WUHU21623XXSP,2013-12-12 11:01:00,
2013-12-12 03:06:00,40.6,26.5,30.18,SE,135,4.0,7.6,57,0.00,,,0.00,WUHU21623XXSP,2013-12-12 11:06:00,
2013-12-12 03:11:00,40.6,26.1,30.19,SE,135,4.0,7.6,56,0.00,,,0.00,WUHU21623XXSP,2013-12-12 11:11:00,
2013-12-12 03:16:00,40.8,26.2,30.18,SE,135,2.9,6.5,56,0.00,,,0.00,WUHU21623XXSP,2013-12-12 11:16:00,
2013-12-12 03:21:00,40.6,26.1,30.18,ESE,112,5.4,8.9,56,0.00,,,0.00,WUHU21623XXSP,2013-12-12 11:21:00,
2013-12-12 03:26:00,40.6,26.5,30.18,SE,135,3.8,8.9,57,0.00,,,0.00,WUHU21623XXSP,2013-12-12 11:26:00,
2013-12-12 03:31:00,40.5,25.9,30.18,East,90,2.5,6.5,56,0.00,,,0.00,WUHU21623XXSP,2013-12-12 11:31:00,
2013-12-12 03:36:00,40.6,26.1,30.18,SSE,157,5.8,7.2,56,0.00,,,0.00,WUHU21623XXSP,2013-12-12 11:36:00,
2013-12-12 03:41:00,40.8,26.2,30.18,ESE,112,5.4,7.2,56,0.00,,,0.00,WUHU21623XXSP,2013-12-12 11:41:00,
2013-12-12 03:46:00,40.8,26.2,30.18,ESE,112,5.1,6.9,56,0.00,,,0.00,WUHU21623XXSP,2013-12-12 11:46:00,
2013-12-12 03:51:00,40.8,26.2,30.18,SE,135,4.5,6.9,56,0.00,,,0.00,WUHU21623XXSP,2013-12-12 11:51:00,
2013-12-12 03:56:00,41.0,26.4,30.18,SE,135,3.1,6.7,56,0.00,,,0.00,WUHU21623XXSP,2013-12-12 11:56:00,
2013-12-12 04:01:00,41.2,26.1,30.18,SE,135,2.9,7.4,55,0.00,,,0.00,WUHU21623XXSP,2013-12-12 12:01:00,
2013-12-12 04:06:00,41.2,26.1,30.18,SSE,157,5.1,7.4,55,0.00,,,0.00,WUHU21623XXSP,2013-12-12 12:06:00,
2013-12-12 04:11:00,41.2,26.1,30.18,SE,135,2.2,6.9,55,0.00,,,0.00,WUHU21623XXSP,2013-12-12 12:11:00,
2013-12-12 04:16:00,41.4,26.3,30.18,ESE,112,4.0,6.9,55,0.00,,,0.00,WUHU21623XXSP,2013-12-12 12:16:00,
2013-12-12 04:21:00,41.2,26.1,30.18,SE,135,2.0,7.4,55,0.00,,,0.00,WUHU21623XXSP,2013-12-12 12:21:00,
2013-12-12 04:26:00,41.2,26.1,30.18,SE,135,2.5,7.4,55,0.00,,,0.00,WUHU21623XXSP,2013-12-12 12:26:00,
2013-12-12 04:31:00,41.2,26.1,30.18,SE,135,1.1,6.7,55,0.00,,,0.00,WUHU21623XXSP,2013-12-12 12:31:00,
2013-12-12 04:36:00,41.2,26.1,30.18,SE,135,3.1,8.5,55,0.00,,,0.00,WUHU21623XXSP,2013-12-12 12:36:00,
2013-12-12 04:41:00,40.8,25.8,30.18,SE,135,1.8,8.5,55,0.00,,,0.00,WUHU21623XXSP,2013-12-12 12:41:00,
2013-12-12 04:46:00,40.8,26.2,30.18,SE,135,4.9,6.9,56,0.00,,,0.00,WUHU21623XXSP,2013-12-12 12:46:00,
2013-12-12 04:51:00,40.8,25.8,30.18,SE,135,2.9,7.4,55,0.00,,,0.00,WUHU21623XXSP,2013-12-12 12:51:00,
2013-12-12 04:56:00,40.8,25.8,30.18,SE,135,3.6,7.4,55,0.00,,,0.00,WUHU21623XXSP,2013-12-12 12:56:00,
2013-12-12 05:01:00,41.0,26.0,30.18,SSE,157,3.1,8.7,55,0.00,,,0.00,WUHU21623XXSP,2013-12-12 13:01:00,
2013-12-12 05:06:00,41.2,25.7,30.18,ESE,112,3.1,8.7,54,0.00,,,0.00,WUHU21623XXSP,2013-12-12 13:06:00,
2013-12-12 05:11:00,41.2,25.7,30.17,SE,135,4.5,7.4,54,0.00,,,0.00,WUHU21623XXSP,2013-12-12 13:11:00,
2013-12-12 05:16:00,41.2,25.7,30.18,SE,135,0.4,7.4,54,0.00,,,0.00,WUHU21623XXSP,2013-12-12 13:16:00,
2013-12-12 05:21:00,41.4,25.9,30.18,ESE,112,5.8,7.2,54,0.00,,,0.00,WUHU21623XXSP,2013-12-12 13:21:00,
2013-12-12 05:26:00,41.4,25.4,30.18,South,180,11.4,11.4,53,0.00,,,0.00,WUHU21623XXSP,2013-12-12 13:26:00,
2013-12-12 05:31:00,41.5,25.6,30.18,SE,135,6.7,11.4,53,0.00,,,0.00,WUHU21623XXSP,2013-12-12 13:31:00,
2013-12-12 05:36:00,41.5,25.6,30.18,SE,135,5.1,6.7,53,0.00,,,0.00,WUHU21623XXSP,2013-12-12 13:36:00,
2013-12-12 05:41:00,41.2,25.7,30.18,SE,135,5.8,6.7,54,0.00,,,0.00,WUHU21623XXSP,2013-12-12 13:41:00,
2013-12-12 05:46:00,41.2,25.7,30.18,SE,135,6.3,6.5,54,0.00,,,0.00,WUHU21623XXSP,2013-12-12 13:46:00,
2013-12-12 05:51:00,40.8,25.3,30.18,SSE,157,5.8,7.2,54,0.00,,,0.00,WUHU21623XXSP,2013-12-12 13:51:00,
2013-12-12 05:56:00,40.8,25.3,30.18,SE,135,6.3,7.2,54,0.00,,,0.00,WUHU21623XXSP,2013-12-12 13:56:00,
2013-12-12 06:01:00,41.0,25.1,30.18,SE,135,4.7,7.4,53,0.00,,,0.00,WUHU21623XXSP,2013-12-12 14:01:00,
2013-12-12 06:06:00,41.2,25.2,30.17,ESE,112,6.7,7.4,53,0.00,,,0.00,WUHU21623XXSP,2013-12-12 14:06:00,
2013-12-12 06:11:00,41.2,25.2,30.18,SE,135,3.8,6.9,53,0.00,,,0.00,WUHU21623XXSP,2013-12-12 14:11:00,
2013-12-12 06:16:00,41.4,25.0,30.17,SE,135,4.5,6.9,52,0.00,,,0.00,WUHU21623XXSP,2013-12-12 14:16:00,
2013-12-12 06:21:00,41.4,25.4,30.17,SE,135,4.0,6.9,53,0.00,,,0.00,WUHU21623XXSP,2013-12-12 14:21:00,
2013-12-12 06:26:00,41.5,25.1,30.18,SE,135,4.0,8.1,52,0.00,,,0.00,WUHU21623XXSP,2013-12-12 14:26:00,
2013-12-12 06:31:00,41.4,25.4,30.18,SE,135,5.6,8.1,53,0.00,,,0.00,WUHU21623XXSP,2013-12-12 14:31:00,
2013-12-12 06:36:00,41.2,25.2,30.18,ESE,112,4.0,6.5,53,0.00,,,0.00,WUHU21623XXSP,2013-12-12 14:36:00,
2013-12-12 06:41:00,41.2,24.8,30.18,SE,135,2.5,6.5,52,0.00,,,0.00,WUHU21623XXSP,2013-12-12 14:41:00,
2013-12-12 06:46:00,41.2,25.2,30.18,SE,135,2.5,6.3,53,0.00,,,0.00,WUHU21623XXSP,2013-12-12 14:46:00,
2013-12-12 06:51:00,41.4,25.0,30.18,SE,135,1.3,5.4,52,0.00,,,0.00,WUHU21623XXSP,2013-12-12 14:51:00,
2013-12-12 06:56:00,41.2,24.8,30.18,ESE,112,0.0,6.7,52,0.00,,,0.00,WUHU21623XXSP,2013-12-12 14:56:00,
2013-12-12 07:01:00,41.2,24.8,30.18,ESE,112,0.0,6.7,52,0.00,,,0.00,WUHU21623XXSP,2013-12-12 15:01:00,
2013-12-12 07:06:00,41.2,24.8,30.19,ESE,112,0.0,6.5,52,0.00,,,0.00,WUHU21623XXSP,2013-12-12 15:06:00,
2013-12-12 07:11:00,41.0,24.6,30.19,ESE,112,2.2,4.9,52,0.00,,,0.00,WUHU21623XXSP,2013-12-12 15:11:00,
2013-12-12 07:16:00,41.0,24.6,30.19,ENE,67,0.0,2.9,52,0.00,,,0.00,WUHU21623XXSP,2013-12-12 15:16:00,
2013-12-12 07:22:00,40.8,24.9,30.19,ESE,112,0.0,2.7,53,0.00,,,0.00,WUHU21623XXSP,2013-12-12 15:22:00,
2013-12-12 07:26:00,40.6,24.7,30.19,ESE,112,0.0,2.2,53,0.00,,,0.00,WUHU21623XXSP,2013-12-12 15:26:00,
2013-12-12 07:32:00,40.5,25.0,30.19,ESE,112,0.0,0.0,54,0.00,,,0.00,WUHU21623XXSP,2013-12-12 15:32:00,
2013-12-12 07:37:00,40.3,24.8,30.19,ESE,112,1.1,3.6,54,0.00,,,0.00,WUHU21623XXSP,2013-12-12 15:37:00,
2013-12-12 07:41:00,40.3,25.3,30.19,ESE,112,0.9,3.6,55,0.00,,,0.00,WUHU21623XXSP,2013-12-12 15:41:00,
2013-12-12 07:46:00,40.1,25.1,30.19,ESE,112,0.0,3.6,55,0.00,,,0.00,WUHU21623XXSP,2013-12-12 15:46:00,
2013-12-12 07:51:00,39.9,24.9,30.19,SSE,157,0.0,3.6,55,0.00,,,0.00,WUHU21623XXSP,2013-12-12 15:51:00,
2013-12-12 07:56:00,39.9,24.9,30.19,ESE,112,1.3,5.4,55,0.00,,,0.00,WUHU21623XXSP,2013-12-12 15:56:00,
2013-12-12 08:01:00,39.9,24.9,30.19,SSE,157,2.7,5.4,55,0.00,,,0.00,WUHU21623XXSP,2013-12-12 16:01:00,
2013-12-12 08:06:00,40.3,25.3,30.19,East,90,0.0,3.6,55,0.00,,,0.00,WUHU21623XXSP,2013-12-12 16:06:00,
2013-12-12 08:11:00,40.6,25.2,30.19,SE,135,0.0,6.9,54,0.00,,,0.00,WUHU21623XXSP,2013-12-12 16:11:00,
2013-12-12 08:16:00,41.0,25.1,30.20,ENE,67,0.0,6.9,53,0.00,,,0.00,WUHU21623XXSP,2013-12-12 16:16:00,
2013-12-12 08:21:00,41.4,25.0,30.20,NW,315,0.0,2.9,52,0.00,,,0.00,WUHU21623XXSP,2013-12-12 16:21:00,
2013-12-12 08:26:00,41.5,25.1,30.20,NW,315,0.0,0.0,52,0.00,,,0.00,WUHU21623XXSP,2013-12-12 16:26:00,
2013-12-12 08:31:00,41.5,25.1,30.20,ESE,112,0.9,2.2,52,0.00,,,0.00,WUHU21623XXSP,2013-12-12 16:31:00,
2013-12-12 08:36:00,41.5,25.6,30.21,ESE,112,0.0,3.1,53,0.00,,,0.00,WUHU21623XXSP,2013-12-12 16:36:00,
2013-12-12 08:41:00,41.5,26.0,30.20,ESE,112,0.0,3.1,54,0.00,,,0.00,WUHU21623XXSP,2013-12-12 16:41:00,
2013-12-12 08:46:00,41.5,26.5,30.20,ESE,112,1.8,2.2,55,0.00,,,0.00,WUHU21623XXSP,2013-12-12 16:46:00,
2013-12-12 08:51:00,41.4,26.3,30.20,ESE,112,1.1,3.4,55,0.00,,,0.00,WUHU21623XXSP,2013-12-12 16:51:00,
2013-12-12 08:56:00,41.5,26.5,30.21,ESE,112,0.0,3.4,55,0.00,,,0.00,WUHU21623XXSP,2013-12-12 16:56:00,
2013-12-12 09:01:00,41.7,26.7,30.21,East,90,1.8,3.6,55,0.00,,,0.00,WUHU21623XXSP,2013-12-12 17:01:00,
2013-12-12 09:06:00,41.9,26.8,30.21,ESE,112,0.0,3.6,55,0.00,,,0.00,WUHU21623XXSP,2013-12-12 17:06:00,
2013-12-12 09:11:00,42.4,27.3,30.21,SE,135,0.0,1.6,55,0.00,,,0.00,WUHU21623XXSP,2013-12-12 17:11:00,
2013-12-12 09:16:00,42.6,27.1,30.21,SE,135,0.0,0.0,54,0.00,,,0.00,WUHU21623XXSP,2013-12-12 17:16:00,
2013-12-12 09:21:00,43.3,27.8,30.21,SE,135,0.0,1.8,54,0.00,,,0.00,WUHU21623XXSP,2013-12-12 17:21:00,
2013-12-12 09:27:00,43.5,27.9,30.21,ENE,67,0.0,1.3,54,0.00,,,0.00,WUHU21623XXSP,2013-12-12 17:27:00,
2013-12-12 09:31:00,43.9,28.3,30.21,ENE,67,0.0,1.3,54,0.00,,,0.00,WUHU21623XXSP,2013-12-12 17:31:00,
2013-12-12 09:36:00,44.4,28.8,30.21,NE,45,0.0,0.0,54,0.00,,,0.00,WUHU21623XXSP,2013-12-12 17:36:00,
2013-12-12 09:41:00,45.0,29.3,30.22,West,270,0.0,2.2,54,0.00,,,0.00,WUHU21623XXSP,2013-12-12 17:41:00,
2013-12-12 09:46:00,45.3,29.6,30.21,West,270,0.0,2.2,54,0.00,,,0.00,WUHU21623XXSP,2013-12-12 17:46:00,
2013-12-12 09:51:00,46.0,29.8,30.22,West,270,0.0,0.0,53,0.00,,,0.00,WUHU21623XXSP,2013-12-12 17:51:00,
2013-12-12 09:56:00,46.6,29.4,30.22,West,270,0.0,0.0,51,0.00,,,0.00,WUHU21623XXSP,2013-12-12 17:56:00,
2013-12-12 10:02:00,47.1,29.9,30.21,WSW,247,0.0,0.0,51,0.00,,,0.00,WUHU21623XXSP,2013-12-12 18:02:00,
2013-12-12 10:07:00,47.5,29.7,30.21,WSW,247,0.0,0.0,50,0.00,,,0.00,WUHU21623XXSP,2013-12-12 18:07:00,
2013-12-12 10:12:00,47.8,30.1,30.21,West,270,0.0,0.0,50,0.00,,,0.00,WUHU21623XXSP,2013-12-12 18:12:00,
2013-12-12 10:17:00,48.4,28.9,30.21,West,270,0.0,0.0,47,0.00,,,0.00,WUHU21623XXSP,2013-12-12 18:17:00,
2013-12-12 10:22:00,49.1,29.6,30.21,WNW,292,0.0,1.6,47,0.00,,,0.00,WUHU21623XXSP,2013-12-12 18:22:00,
2013-12-12 10:27:00,49.8,29.8,30.21,West,270,0.0,1.6,46,0.00,,,0.00,WUHU21623XXSP,2013-12-12 18:27:00,
2013-12-12 10:32:00,50.2,29.0,30.21,West,270,0.0,1.3,44,0.00,,,0.00,WUHU21623XXSP,2013-12-12 18:32:00,
2013-12-12 10:37:00,50.7,29.5,30.20,West,270,0.0,1.3,44,0.00,,,0.00,WUHU21623XXSP,2013-12-12 18:37:00,
2013-12-12 10:42:00,51.1,29.2,30.20,North,0,0.0,2.2,43,0.00,,,0.00,WUHU21623XXSP,2013-12-12 18:42:00,
2013-12-12 10:47:00,51.4,29.0,30.21,NW,315,0.9,2.7,42,0.00,,,0.00,WUHU21623XXSP,2013-12-12 18:47:00,
2013-12-12 10:51:00,51.6,29.2,30.20,NW,315,0.0,2.7,42,0.00,,,0.00,WUHU21623XXSP,2013-12-12 18:51:00,
2013-12-12 10:57:00,51.6,29.2,30.20,WSW,247,0.0,1.3,42,0.00,,,0.00,WUHU21623XXSP,2013-12-12 18:57:00,
2013-12-12 11:02:00,51.8,29.9,30.19,East,90,0.0,2.9,43,0.00,,,0.00,WUHU21623XXSP,2013-12-12 19:02:00,
2013-12-12 11:06:00,52.0,30.1,30.19,SSE,157,4.7,5.6,43,0.00,,,0.00,WUHU21623XXSP,2013-12-12 19:06:00,
2013-12-12 11:12:00,52.5,30.0,30.19,SSE,157,4.7,5.6,42,0.00,,,0.00,WUHU21623XXSP,2013-12-12 19:12:00,
2013-12-12 11:17:00,52.9,29.8,30.19,East,90,0.9,8.1,41,0.00,,,0.00,WUHU21623XXSP,2013-12-12 19:17:00,
2013-12-12 11:22:00,53.4,29.0,30.19,SE,135,2.2,8.1,39,0.00,,,0.00,WUHU21623XXSP,2013-12-12 19:22:00,
2013-12-12 11:27:00,54.0,30.2,30.18,SE,135,0.0,4.7,40,0.00,,,0.00,WUHU21623XXSP,2013-12-12 19:27:00,
2013-12-12 11:32:00,54.3,29.1,30.18,East,90,0.9,5.4,38,0.00,,,0.00,WUHU21623XXSP,2013-12-12 19:32:00,
2013-12-12 11:36:00,54.9,29.6,30.18,SSE,157,0.0,5.4,38,0.00,,,0.00,WUHU21623XXSP,2013-12-12 19:36:00,
2013-12-12 11:42:00,55.0,29.7,30.18,SSW,202,0.0,4.9,38,0.00,,,0.00,WUHU21623XXSP,2013-12-12 19:42:00,
2013-12-12 11:46:00,55.4,30.1,30.18,West,270,0.0,2.5,38,0.00,,,0.00,WUHU21623XXSP,2013-12-12 19:46:00,
2013-12-12 11:51:00,55.4,29.4,30.18,NW,315,0.0,1.8,37,0.00,,,0.00,WUHU21623XXSP,2013-12-12 19:51:00,
2013-12-12 11:56:00,55.2,29.9,30.17,WSW,247,1.8,1.8,38,0.00,,,0.00,WUHU21623XXSP,2013-12-12 19:56:00,
2013-12-12 12:01:00,55.2,30.6,30.17,WSW,247,0.0,3.8,39,0.00,,,0.00,WUHU21623XXSP,2013-12-12 20:01:00,
2013-12-12 12:06:00,55.2,31.3,30.17,West,270,1.1,3.8,40,0.00,,,0.00,WUHU21623XXSP,2013-12-12 20:06:00,
2013-12-12 12:11:00,55.2,31.3,30.16,West,270,0.0,3.8,40,0.00,,,0.00,WUHU21623XXSP,2013-12-12 20:11:00,
2013-12-12 12:16:00,55.4,30.8,30.16,West,270,1.1,3.8,39,0.00,,,0.00,WUHU21623XXSP,2013-12-12 20:16:00,
2013-12-12 12:21:00,55.4,30.8,30.16,WNW,292,0.0,3.1,39,0.00,,,0.00,WUHU21623XXSP,2013-12-12 20:21:00,
2013-12-12 12:27:00,55.2,31.3,30.16,WNW,292,0.0,2.7,40,0.00,,,0.00,WUHU21623XXSP,2013-12-12 20:27:00,
2013-12-12 12:31:00,54.9,31.5,30.16,WNW,292,1.3,2.9,41,0.00,,,0.00,WUHU21623XXSP,2013-12-12 20:31:00,
2013-12-12 12:36:00,54.5,31.8,30.16,West,270,1.1,3.8,42,0.00,,,0.00,WUHU21623XXSP,2013-12-12 20:36:00,
2013-12-12 12:41:00,54.3,31.6,30.15,WNW,292,0.0,3.8,42,0.00,,,0.00,WUHU21623XXSP,2013-12-12 20:41:00,
2013-12-12 12:46:00,54.3,32.2,30.15,West,270,0.0,3.1,43,0.00,,,0.00,WUHU21623XXSP,2013-12-12 20:46:00,
2013-12-12 12:51:00,54.5,32.3,30.15,South,180,0.0,1.3,43,0.00,,,0.00,WUHU21623XXSP,2013-12-12 20:51:00,
2013-12-12 12:56:00,54.7,32.5,30.15,WNW,292,0.0,1.3,43,0.00,,,0.00,WUHU21623XXSP,2013-12-12 20:56:00,
2013-12-12 13:01:00,54.7,32.5,30.14,WNW,292,1.8,2.5,43,0.00,,,0.00,WUHU21623XXSP,2013-12-12 21:01:00,
2013-12-12 13:06:00,54.7,32.5,30.14,WNW,292,1.6,2.5,43,0.00,,,0.00,WUHU21623XXSP,2013-12-12 21:06:00,
2013-12-12 13:11:00,54.7,32.5,30.14,West,270,0.0,3.1,43,0.00,,,0.00,WUHU21623XXSP,2013-12-12 21:11:00,
2013-12-12 13:16:00,55.0,32.8,30.14,WNW,292,0.0,4.7,43,0.00,,,0.00,WUHU21623XXSP,2013-12-12 21:16:00,
2013-12-12 13:22:00,55.0,32.8,30.14,WNW,292,1.6,4.7,43,0.00,,,0.00,WUHU21623XXSP,2013-12-12 21:22:00,
2013-12-12 13:25:00,54.7,31.9,30.14,WNW,292,1.8,4.3,42,0.00,,,0.00,WUHU21623XXSP,2013-12-12 21:25:00,
2013-12-12 13:30:00,54.5,31.8,30.14,WNW,292,2.5,4.7,42,0.00,,,0.00,WUHU21623XXSP,2013-12-12 21:30:00,
2013-12-12 13:35:00,54.3,31.6,30.14,West,270,0.0,4.7,42,0.00,,,0.00,WUHU21623XXSP,2013-12-12 21:35:00,
2013-12-12 13:40:00,54.1,32.0,30.14,WNW,292,0.0,4.5,43,0.00,,,0.00,WUHU21623XXSP,2013-12-12 21:40:00,
2013-12-12 13:45:00,54.0,31.8,30.14,West,270,0.0,5.6,43,0.00,,,0.00,WUHU21623XXSP,2013-12-12 21:45:00,
2013-12-12 13:50:00,54.0,31.8,30.14,WNW,292,0.0,5.6,43,0.00,,,0.00,WUHU21623XXSP,2013-12-12 21:50:00,
2013-12-12 13:55:00,53.8,31.7,30.14,WNW,292,0.0,4.5,43,0.00,,,0.00,WUHU21623XXSP,2013-12-12 21:55:00,
2013-12-12 14:00:00,53.4,31.4,30.14,WNW,292,2.0,4.5,43,0.00,,,0.00,WUHU21623XXSP,2013-12-12 22:00:00,
2013-12-12 14:05:00,53.4,31.4,30.14,West,270,2.2,3.4,43,0.00,,,0.00,WUHU21623XXSP,2013-12-12 22:05:00,
2013-12-12 14:10:00,53.2,31.2,30.13,SSW,202,0.0,2.7,43,0.00,,,0.00,WUHU21623XXSP,2013-12-12 22:10:00,
2013-12-12 14:15:00,53.4,31.4,30.13,SW,225,0.0,1.8,43,0.00,,,0.00,WUHU21623XXSP,2013-12-12 22:15:00,
2013-12-12 14:20:00,53.4,31.4,30.14,West,270,0.0,1.8,43,0.00,,,0.00,WUHU21623XXSP,2013-12-12 22:20:00,
2013-12-12 14:25:00,53.4,31.9,30.13,West,270,0.0,0.7,44,0.00,,,0.00,WUHU21623XXSP,2013-12-12 22:25:00,
2013-12-12 14:30:00,53.4,31.9,30.13,WSW,247,0.0,0.0,44,0.00,,,0.00,WUHU21623XXSP,2013-12-12 22:30:00,
2013-12-12 14:35:00,53.4,31.9,30.12,South,180,0.0,2.2,44,0.00,,,0.00,WUHU21623XXSP,2013-12-12 22:35:00,
2013-12-12 14:40:00,53.4,31.9,30.12,WSW,247,0.0,4.9,44,0.00,,,0.00,WUHU21623XXSP,2013-12-12 22:40:00,
2013-12-12 14:45:00,53.8,32.2,30.13,WSW,247,0.0,4.9,44,0.00,,,0.00,WUHU21623XXSP,2013-12-12 22:45:00,
2013-12-12 14:50:00,53.6,32.1,30.13,West,270,0.0,2.2,44,0.00,,,0.00,WUHU21623XXSP,2013-12-12 22:50:00,
2013-12-12 14:55:00,53.6,32.1,30.13,West,270,0.0,1.6,44,0.00,,,0.00,WUHU21623XXSP,2013-12-12 22:55:00,
2013-12-12 15:00:00,53.4,31.9,30.13,West,270,0.0,1.1,44,0.00,,,0.00,WUHU21623XXSP,2013-12-12 23:00:00,
2013-12-12 15:05:00,53.4,31.9,30.13,West,270,0.0,0.0,44,0.00,,,0.00,WUHU21623XXSP,2013-12-12 23:05:00,
2013-12-12 15:10:00,53.4,31.9,30.13,West,270,0.0,0.0,44,0.00,,,0.00,WUHU21623XXSP,2013-12-12 23:10:00,
2013-12-12 15:15:00,53.4,31.9,30.13,West,270,0.0,0.0,44,0.00,,,0.00,WUHU21623XXSP,2013-12-12 23:15:00,
2013-12-12 15:20:00,53.4,31.9,30.13,West,270,0.0,0.0,44,0.00,,,0.00,WUHU21623XXSP,2013-12-12 23:20:00,
2013-12-12 15:25:00,53.2,31.7,30.13,West,270,0.0,0.0,44,0.00,,,0.00,WUHU21623XXSP,2013-12-12 23:25:00,
2013-12-12 15:30:00,53.2,31.2,30.13,West,270,0.0,0.0,43,0.00,,,0.00,WUHU21623XXSP,2013-12-12 23:30:00,
2013-12-12 15:35:00,53.2,31.7,30.13,West,270,0.0,0.0,44,0.00,,,0.00,WUHU21623XXSP,2013-12-12 23:35:00,
2013-12-12 15:40:00,52.7,32.4,30.13,West,270,0.0,0.0,46,0.00,,,0.00,WUHU21623XXSP,2013-12-12 23:40:00,
2013-12-12 15:45:00,52.3,32.6,30.13,West,270,0.0,0.0,47,0.00,,,0.00,WUHU21623XXSP,2013-12-12 23:45:00,
2013-12-12 15:50:00,52.0,32.3,30.13,West,270,0.0,0.0,47,0.00,,,0.00,WUHU21623XXSP,2013-12-12 23:50:00,
2013-12-12 15:55:00,51.6,33.1,30.13,West,270,0.0,0.0,49,0.00,,,0.00,WUHU21623XXSP,2013-12-12 23:55:00,
2013-12-12 16:00:00,50.9,33.4,30.13,West,270,0.0,0.0,51,0.00,,,0.00,WUHU21623XXSP,2013-12-13 00:00:00,
2013-12-12 16:05:00,50.4,33.4,30.13,West,270,0.0,0.0,52,0.00,,,0.00,WUHU21623XXSP,2013-12-13 00:05:00,
2013-12-12 16:10:00,49.6,33.2,30.14,West,270,0.0,0.0,53,0.00,,,0.00,WUHU21623XXSP,2013-12-13 00:10:00,
2013-12-12 16:15:00,49.1,33.6,30.14,West,270,0.0,0.0,55,0.00,,,0.00,WUHU21623XXSP,2013-12-13 00:15:00,
2013-12-12 16:20:00,48.4,32.9,30.14,West,270,0.0,0.0,55,0.00,,,0.00,WUHU21623XXSP,2013-12-13 00:20:00,
2013-12-12 16:25:00,48.0,33.0,30.14,West,270,0.0,0.0,56,0.00,,,0.00,WUHU21623XXSP,2013-12-13 00:25:00,
2013-12-12 16:30:00,47.7,33.1,30.14,West,270,0.0,0.0,57,0.00,,,0.00,WUHU21623XXSP,2013-12-13 00:30:00,
2013-12-12 16:35:00,47.3,32.8,30.14,West,270,0.0,0.0,57,0.00,,,0.00,WUHU21623XXSP,2013-12-13 00:35:00,
2013-12-12 16:40:00,46.9,32.4,30.14,West,270,0.0,0.0,57,0.00,,,0.00,WUHU21623XXSP,2013-12-13 00:40:00,
2013-12-12 16:45:00,46.6,32.5,30.14,West,270,0.0,0.0,58,0.00,,,0.00,WUHU21623XXSP,2013-12-13 00:45:00,
2013-12-12 16:50:00,46.0,32.0,30.14,West,270,0.0,0.0,58,0.00,,,0.00,WUHU21623XXSP,2013-12-13 00:50:00,
2013-12-12 16:55:00,45.7,32.2,30.15,West,270,0.0,0.0,59,0.00,,,0.00,WUHU21623XXSP,2013-12-13 00:55:00,
2013-12-12 17:00:00,45.3,31.8,30.15,West,270,0.0,0.0,59,0.00,,,0.00,WUHU21623XXSP,2013-12-13 01:00:00,
2013-12-12 17:05:00,45.1,32.1,30.14,SE,135,1.8,2.0,60,0.00,,,0.00,WUHU21623XXSP,2013-12-13 01:05:00,
2013-12-12 17:10:00,44.8,31.8,30.15,SE,135,1.8,2.0,60,0.00,,,0.00,WUHU21623XXSP,2013-12-13 01:10:00,
2013-12-12 17:15:00,44.4,31.5,30.14,SE,135,2.2,2.2,60,0.00,,,0.00,WUHU21623XXSP,2013-12-13 01:15:00,
2013-12-12 17:20:00,44.4,31.5,30.14,ESE,112,2.2,3.1,60,0.00,,,0.00,WUHU21623XXSP,2013-12-13 01:20:00,
2013-12-12 17:25:00,44.2,31.7,30.14,ESE,112,2.0,3.1,61,0.00,,,0.00,WUHU21623XXSP,2013-12-13 01:25:00,
2013-12-12 17:30:00,44.1,31.5,30.14,ESE,112,1.6,2.5,61,0.00,,,0.00,WUHU21623XXSP,2013-12-13 01:30:00,
2013-12-12 17:35:00,43.9,31.3,30.14,ESE,112,1.6,2.0,61,0.00,,,0.00,WUHU21623XXSP,2013-12-13 01:35:00,
2013-12-12 17:40:00,43.9,31.3,30.14,ESE,112,2.5,2.7,61,0.00,,,0.00,WUHU21623XXSP,2013-12-13 01:40:00,
2013-12-12 17:45:00,43.7,31.1,30.14,ESE,112,1.8,2.7,61,0.00,,,0.00,WUHU21623XXSP,2013-12-13 01:45:00,
2013-12-12 17:50:00,43.5,30.9,30.14,ESE,112,1.3,3.1,61,0.00,,,0.00,WUHU21623XXSP,2013-12-13 01:50:00,
2013-12-12 17:55:00,43.5,30.9,30.14,ESE,112,2.0,3.1,61,0.00,,,0.00,WUHU21623XXSP,2013-12-13 01:55:00,
2013-12-12 18:00:00,43.5,30.9,30.14,ESE,112,2.0,2.2,61,0.00,,,0.00,WUHU21623XXSP,2013-12-13 02:00:00,
2013-12-12 18:05:00,43.5,30.9,30.13,ESE,112,1.8,3.1,61,0.00,,,0.00,WUHU21623XXSP,2013-12-13 02:05:00,
2013-12-12 18:09:00,43.3,30.8,30.13,ESE,112,0.0,3.8,61,0.00,,,0.00,WUHU21623XXSP,2013-12-13 02:09:00,
2013-12-12 18:15:00,43.2,30.6,30.14,ESE,112,0.9,3.8,61,0.00,,,0.00,WUHU21623XXSP,2013-12-13 02:15:00,
2013-12-12 18:20:00,43.2,30.6,30.14,ESE,112,2.5,3.8,61,0.00,,,0.00,WUHU21623XXSP,2013-12-13 02:20:00,
2013-12-12 18:25:00,43.3,30.8,30.14,ESE,112,1.6,3.4,61,0.00,,,0.00,WUHU21623XXSP,2013-12-13 02:25:00,
2013-12-12 18:30:00,43.3,30.8,30.14,ESE,112,1.8,3.1,61,0.00,,,0.00,WUHU21623XXSP,2013-12-13 02:30:00,
2013-12-12 18:35:00,43.3,31.2,30.14,ESE,112,1.3,3.4,62,0.00,,,0.00,WUHU21623XXSP,2013-12-13 02:35:00,
2013-12-12 18:40:00,43.2,31.0,30.14,ESE,112,3.1,5.1,62,0.00,,,0.00,WUHU21623XXSP,2013-12-13 02:40:00,
2013-12-12 18:45:00,43.3,31.2,30.13,ESE,112,1.6,5.1,62,0.00,,,0.00,WUHU21623XXSP,2013-12-13 02:45:00,
2013-12-12 18:50:00,43.5,31.3,30.13,ESE,112,0.0,4.0,62,0.00,,,0.00,WUHU21623XXSP,2013-12-13 02:50:00,
2013-12-12 18:55:00,43.5,31.3,30.14,ESE,112,2.2,4.0,62,0.00,,,0.00,WUHU21623XXSP,2013-12-13 02:55:00,
2013-12-12 19:00:00,43.5,31.7,30.14,ESE,112,0.0,4.0,63,0.00,,,0.00,WUHU21623XXSP,2013-12-13 03:00:00,
2013-12-12 19:05:00,43.5,31.7,30.14,ESE,112,1.6,3.1,63,0.00,,,0.00,WUHU21623XXSP,2013-12-13 03:05:00,
2013-12-12 19:10:00,43.5,31.7,30.14,ESE,112,0.7,2.5,63,0.00,,,0.00,WUHU21623XXSP,2013-12-13 03:10:00,
2013-12-12 19:15:00,43.3,31.6,30.14,ESE,112,1.3,2.5,63,0.00,,,0.00,WUHU21623XXSP,2013-12-13 03:15:00,
2013-12-12 19:20:00,43.3,31.6,30.14,ESE,112,1.1,2.2,63,0.00,,,0.00,WUHU21623XXSP,2013-12-13 03:20:00,
2013-12-12 19:25:00,43.2,31.4,30.15,ESE,112,0.7,2.5,63,0.00,,,0.00,WUHU21623XXSP,2013-12-13 03:25:00,
2013-12-12 19:30:00,43.2,31.4,30.15,ESE,112,0.7,2.5,63,0.00,,,0.00,WUHU21623XXSP,2013-12-13 03:30:00,
2013-12-12 19:35:00,43.0,31.2,30.15,ESE,112,0.0,1.8,63,0.00,,,0.00,WUHU21623XXSP,2013-12-13 03:35:00,
2013-12-12 19:40:00,43.0,31.2,30.15,ESE,112,1.8,2.5,63,0.00,,,0.00,WUHU21623XXSP,2013-12-13 03:40:00,
2013-12-12 19:45:00,42.6,30.8,30.15,ESE,112,2.0,2.5,63,0.00,,,0.00,WUHU21623XXSP,2013-12-13 03:45:00,
2013-12-12 19:50:00,42.6,30.8,30.15,ESE,112,1.3,3.1,63,0.00,,,0.00,WUHU21623XXSP,2013-12-13 03:50:00,
2013-12-12 19:55:00,42.6,30.8,30.15,ESE,112,2.2,3.1,63,0.00,,,0.00,WUHU21623XXSP,2013-12-13 03:55:00,
2013-12-12 20:00:00,42.6,30.5,30.15,ESE,112,1.6,3.1,62,0.00,,,0.00,WUHU21623XXSP,2013-12-13 04:00:00,
2013-12-12 20:05:00,42.6,30.5,30.15,ESE,112,1.3,2.9,62,0.00,,,0.00,WUHU21623XXSP,2013-12-13 04:05:00,
2013-12-12 20:10:00,42.8,30.2,30.15,ESE,112,0.0,2.9,61,0.00,,,0.00,WUHU21623XXSP,2013-12-13 04:10:00,
2013-12-12 20:15:00,43.0,30.4,30.16,ESE,112,0.0,2.7,61,0.00,,,0.00,WUHU21623XXSP,2013-12-13 04:15:00,
2013-12-12 20:20:00,43.0,30.0,30.16,ESE,112,0.0,2.7,60,0.00,,,0.00,WUHU21623XXSP,2013-12-13 04:20:00,
2013-12-12 20:25:00,43.0,30.4,30.16,ESE,112,1.8,1.8,61,0.00,,,0.00,WUHU21623XXSP,2013-12-13 04:25:00,
2013-12-12 20:30:00,42.6,30.1,30.16,ESE,112,1.3,2.5,61,0.00,,,0.00,WUHU21623XXSP,2013-12-13 04:30:00,
2013-12-12 20:35:00,42.6,30.1,30.16,ESE,112,1.3,2.5,61,0.00,,,0.00,WUHU21623XXSP,2013-12-13 04:35:00,
2013-12-12 20:40:00,42.6,30.1,30.17,ESE,112,0.4,2.0,61,0.00,,,0.00,WUHU21623XXSP,2013-12-13 04:40:00,
2013-12-12 20:45:00,42.6,30.1,30.17,ESE,112,0.0,1.6,61,0.00,,,0.00,WUHU21623XXSP,2013-12-13 04:45:00,
2013-12-12 20:50:00,42.4,29.9,30.17,ESE,112,0.0,1.1,61,0.00,,,0.00,WUHU21623XXSP,2013-12-13 04:50:00,
2013-12-12 20:55:00,42.4,29.9,30.17,ESE,112,0.0,0.0,61,0.00,,,0.00,WUHU21623XXSP,2013-12-13 04:55:00,
2013-12-12 21:00:00,42.4,29.5,30.17,ESE,112,0.0,0.0,60,0.00,,,0.00,WUHU21623XXSP,2013-12-13 05:00:00,
2013-12-12 21:01:00,42.4,29.5,30.17,ESE,112,0.0,0.0,60,0.00,,,0.00,WUHU21623XXSP,2013-12-13 05:01:00,
2013-12-12 21:06:00,42.3,29.7,30.18,ESE,112,0.0,0.0,61,0.00,,,0.00,WUHU21623XXSP,2013-12-13 05:06:00,
2013-12-12 21:11:00,42.3,29.7,30.18,ESE,112,0.0,0.0,61,0.00,,,0.00,WUHU21623XXSP,2013-12-13 05:11:00,
2013-12-12 21:16:00,42.4,29.5,30.18,ESE,112,0.0,0.0,60,0.00,,,0.00,WUHU21623XXSP,2013-12-13 05:16:00,
2013-12-12 21:21:00,42.3,29.4,30.18,ESE,112,0.0,0.0,60,0.00,,,0.00,WUHU21623XXSP,2013-12-13 05:21:00,
2013-12-12 21:26:00,42.1,29.2,30.18,ESE,112,0.0,0.0,60,0.00,,,0.00,WUHU21623XXSP,2013-12-13 05:26:00,
2013-12-12 21:31:00,42.1,29.2,30.19,ESE,112,0.0,0.0,60,0.00,,,0.00,WUHU21623XXSP,2013-12-13 05:31:00,
2013-12-12 21:36:00,42.1,29.2,30.18,ESE,112,0.0,0.0,60,0.00,,,0.00,WUHU21623XXSP,2013-12-13 05:36:00,
2013-12-12 21:41:00,42.1,29.2,30.18,ESE,112,0.0,0.0,60,0.00,,,0.00,WUHU21623XXSP,2013-12-13 05:41:00,
2013-12-12 21:46:00,42.1,29.2,30.18,ESE,112,0.0,0.0,60,0.00,,,0.00,WUHU21623XXSP,2013-12-13 05:46:00,
2013-12-12 21:51:00,42.1,29.2,30.18,ESE,112,0.0,0.0,60,0.00,,,0.00,WUHU21623XXSP,2013-12-13 05:51:00,
2013-12-12 21:56:00,42.1,29.2,30.18,ESE,112,0.0,0.0,60,0.00,,,0.00,WUHU21623XXSP,2013-12-13 05:56:00,
2013-12-12 22:01:00,42.1,29.2,30.18,ESE,112,0.0,0.0,60,0.00,,,0.00,WUHU21623XXSP,2013-12-13 06:01:00,
2013-12-12 22:06:00,41.9,29.0,30.18,ESE,112,0.0,0.0,60,0.00,,,0.00,WUHU21623XXSP,2013-12-13 06:06:00,
2013-12-12 22:11:00,41.7,28.9,30.18,ESE,112,0.0,0.0,60,0.00,,,0.00,WUHU21623XXSP,2013-12-13 06:11:00,
2013-12-12 22:16:00,41.5,28.7,30.18,ESE,112,0.0,0.0,60,0.00,,,0.00,WUHU21623XXSP,2013-12-13 06:16:00,
2013-12-12 22:21:00,41.5,28.7,30.18,ESE,112,1.3,2.2,60,0.00,,,0.00,WUHU21623XXSP,2013-12-13 06:21:00,
2013-12-12 22:26:00,41.4,28.5,30.18,ESE,112,1.6,2.2,60,0.00,,,0.00,WUHU21623XXSP,2013-12-13 06:26:00,
2013-12-12 22:31:00,41.0,28.6,30.18,ESE,112,1.3,2.7,61,0.00,,,0.00,WUHU21623XXSP,2013-12-13 06:31:00,
2013-12-12 22:36:00,40.8,28.4,30.18,ESE,112,1.8,2.9,61,0.00,,,0.00,WUHU21623XXSP,2013-12-13 06:36:00,
2013-12-12 22:41:00,40.8,28.4,30.18,ESE,112,1.1,3.4,61,0.00,,,0.00,WUHU21623XXSP,2013-12-13 06:41:00,
2013-12-12 22:46:00,40.6,28.2,30.18,ESE,112,3.1,3.4,61,0.00,,,0.00,WUHU21623XXSP,2013-12-13 06:46:00,
2013-12-12 22:51:00,40.6,28.2,30.18,ESE,112,1.3,3.4,61,0.00,,,0.00,WUHU21623XXSP,2013-12-13 06:51:00,
2013-12-12 22:56:00,40.5,28.1,30.19,ESE,112,1.3,4.0,61,0.00,,,0.00,WUHU21623XXSP,2013-12-13 06:56:00,
2013-12-12 23:01:00,40.5,28.1,30.19,ESE,112,0.7,4.0,61,0.00,,,0.00,WUHU21623XXSP,2013-12-13 07:01:00,
2013-12-12 23:06:00,40.3,27.9,30.19,ESE,112,1.3,2.9,61,0.00,,,0.00,WUHU21623XXSP,2013-12-13 07:06:00,
2013-12-12 23:11:00,40.3,27.9,30.19,ESE,112,0.7,2.7,61,0.00,,,0.00,WUHU21623XXSP,2013-12-13 07:11:00,
2013-12-12 23:16:00,40.1,27.3,30.18,ESE,112,1.3,2.7,60,0.00,,,0.00,WUHU21623XXSP,2013-12-13 07:16:00,
2013-12-12 23:21:00,40.1,27.3,30.18,ESE,112,0.0,2.7,60,0.00,,,0.00,WUHU21623XXSP,2013-12-13 07:21:00,
2013-12-12 23:26:00,39.9,27.1,30.19,ESE,112,0.0,2.7,60,0.00,,,0.00,WUHU21623XXSP,2013-12-13 07:26:00,
2013-12-12 23:31:00,39.9,27.1,30.18,ESE,112,0.0,2.2,60,0.00,,,0.00,WUHU21623XXSP,2013-12-13 07:31:00,
2013-12-12 23:36:00,39.9,26.7,30.19,ESE,112,1.3,2.0,59,0.00,,,0.00,WUHU21623XXSP,2013-12-13 07:36:00,
2013-12-12 23:41:00,39.9,27.1,30.19,ESE,112,1.6,1.8,60,0.00,,,0.00,WUHU21623XXSP,2013-12-13 07:41:00,
2013-12-12 23:46:00,39.7,27.0,30.19,ESE,112,2.0,2.0,60,0.00,,,0.00,WUHU21623XXSP,2013-12-13 07:46:00,
2013-12-12 23:51:00,39.6,26.8,30.19,ESE,112,1.6,2.2,60,0.00,,,0.00,WUHU21623XXSP,2013-12-13 07:51:00,
2013-12-12 23:56:00,39.4,26.6,30.19,ESE,112,1.8,2.2,60,0.00,,,0.00,WUHU21623XXSP,2013-12-13 07:56:00,